| time (UTC) | temp C | wind direction | speed KPH | gust KPH | rain 1hr cm | rain 24hr cm | rain mn cm | humidity % | barometer mb |
| 20260504185733 | 26 | 244 | 14.5 | 30.6 | 0.00 | 0.00 | 0.00 | 36 | 1012.4 |
| 20260504185227 | 26 | 229 | 9.7 | 30.6 | 0.00 | 0.00 | 0.00 | 35 | 1012.6 |
| 20260504184723 | 26 | 206 | 6.4 | 20.9 | 0.00 | 0.00 | 0.00 | 38 | 1012.4 |
| 20260504184210 | 26 | 203 | 6.4 | 17.7 | 0.00 | 0.00 | 0.00 | 40 | 1012.6 |
| 20260504183706 | 26 | 200 | 9.7 | 17.7 | 0.00 | 0.00 | 0.00 | 38 | 1012.7 |
| 20260504183200 | 26 | 208 | 14.5 | 25.7 | 0.00 | 0.00 | 0.00 | 39 | 1012.8 |
| 20260504182650 | 25 | 243 | 11.3 | 29.0 | 0.00 | 0.00 | 0.00 | 38 | 1012.8 |
| 20260504182144 | 26 | 222 | 9.7 | 29.0 | 0.00 | 0.00 | 0.00 | 39 | 1012.8 |
| 20260504181127 | 25 | 229 | 12.9 | 24.1 | 0.00 | 0.00 | 0.00 | 39 | 1013.0 |
| 20260504180625 | 25 | 242 | 14.5 | 25.7 | 0.00 | 0.00 | 0.00 | 40 | 1013.2 |
| 20260504180118 | 25 | 199 | 17.7 | 33.8 | 0.00 | 0.00 | 0.00 | 40 | 1013.2 |
| 20260504175609 | 25 | 228 | 16.1 | 33.8 | 0.00 | 0.00 | 0.00 | 39 | 1013.4 |
| 20260504174555 | 25 | 232 | 14.5 | 29.0 | 0.00 | 0.00 | 0.00 | 39 | 1013.5 |
| 20260504174047 | 25 | 348 | 14.5 | 25.7 | 0.00 | 0.00 | 0.00 | 41 | 1013.4 |
| 20260504173540 | 25 | 225 | 16.1 | 30.6 | 0.00 | 0.00 | 0.00 | 41 | 1013.5 |
| 20260504173033 | 25 | 217 | 17.7 | 30.6 | 0.00 | 0.00 | 0.00 | 40 | 1013.6 |
| 20260504172522 | 24 | 245 | 16.1 | 30.6 | 0.00 | 0.00 | 0.00 | 41 | 1013.6 |
| 20260504172016 | 25 | 236 | 14.5 | 29.0 | 0.00 | 0.00 | 0.00 | 41 | 1013.8 |
| 20260504171509 | 24 | 210 | 16.1 | 25.7 | 0.00 | 0.00 | 0.00 | 41 | 1013.8 |
| 20260504170959 | 24 | 233 | 16.1 | 27.4 | 0.00 | 0.00 | 0.00 | 41 | 1013.9 |
| 20260504170454 | 24 | 187 | 14.5 | 27.4 | 0.00 | 0.00 | 0.00 | 41 | 1014.0 |
| 20260504160409 | 23 | 215 | 14.5 | 24.1 | 0.00 | 0.00 | 0.00 | 47 | 1015.1 |
| 20260504150848 | 21 | 219 | 11.3 | 24.1 | 0.00 | 0.00 | 0.00 | 50 | 1015.2 |
| 20260504150350 | 21 | 226 | 11.3 | 24.1 | 0.00 | 0.00 | 0.00 | 51 | 1015.2 |
| 20260504140332 | 20 | 193 | 16.1 | 33.8 | 0.00 | 0.00 | 0.00 | 54 | 1015.8 |
| 20260504130809 | 16 | 217 | 1.6 | 4.8 | 0.00 | 0.00 | 0.00 | 72 | 1015.9 |
| 20260504130302 | 15 | 193 | 1.6 | 6.4 | 0.00 | 0.00 | 0.00 | 74 | 1016.0 |
| 20260504120253 | 10 | 200 | 0.0 | 0.0 | 0.00 | 0.00 | 0.00 | 78 | 1015.7 |
| 20260504110448 | -17 | 0.0 | 0.0 | 0.00 | 0.00 | 0.00 | 1015.3 | ||
| 20260504100257 | 8 | 200 | 0.0 | 0.0 | 0.00 | 0.00 | 0.00 | 81 | 1015.1 |
| 20260504081754 | 11 | 200 | 0.0 | 0.0 | 0.00 | 0.00 | 0.00 | 75 | 1015.0 |
| 20260504081250 | 11 | 200 | 0.0 | 0.0 | 0.00 | 0.00 | 0.00 | 73 | 1015.0 |
| 20260504080752 | 11 | 200 | 0.0 | 0.0 | 0.00 | 0.00 | 0.00 | 73 | 1015.0 |
| 20260504080255 | 11 | 200 | 0.0 | 0.0 | 0.00 | 0.00 | 0.00 | 71 | 1015.0 |
| 20260504070247 | 11 | 201 | 0.0 | 0.0 | 0.00 | 0.00 | 0.00 | 71 | 1015.7 |
| 20260504060239 | 11 | 216 | 0.0 | 1.6 | 0.00 | 0.00 | 0.00 | 75 | 1016.3 |
| 20260504050737 | 11 | 89 | 0.0 | 0.0 | 0.00 | 0.00 | 0.00 | 75 | 1016.3 |
| 20260504050241 | 11 | 89 | 0.0 | 0.0 | 0.00 | 0.00 | 0.00 | 75 | 1016.3 |
| 20260504045737 | 11 | 89 | 0.0 | 0.0 | 0.00 | 0.00 | 0.00 | 75 | 1016.4 |
| 20260504044739 | 11 | 89 | 0.0 | 0.0 | 0.00 | 0.00 | 0.00 | 74 | 1016.4 |
| 20260504044237 | 11 | 89 | 0.0 | 0.0 | 0.00 | 0.00 | 0.00 | 74 | 1016.3 |
| 20260504043740 | 11 | 89 | 0.0 | 0.0 | 0.00 | 0.00 | 0.00 | 74 | 1016.4 |
| 20260504043240 | 11 | 89 | 0.0 | 0.0 | 0.00 | 0.00 | 0.00 | 74 | 1016.4 |
| 20260504042742 | 11 | 89 | 0.0 | 0.0 | 0.00 | 0.00 | 0.00 | 73 | 1016.4 |
| 20260504042237 | 11 | 89 | 0.0 | 0.0 | 0.00 | 0.00 | 0.00 | 73 | 1016.5 |
| 20260504041736 | 11 | 89 | 0.0 | 0.0 | 0.00 | 0.00 | 0.00 | 72 | 1016.6 |
| 20260504041229 | 11 | 89 | 0.0 | 0.0 | 0.00 | 0.00 | 0.00 | 72 | 1016.6 |
| 20260504040733 | 11 | 89 | 0.0 | 0.0 | 0.00 | 0.00 | 0.00 | 72 | 1016.5 |
| 20260504040237 | 11 | 89 | 0.0 | 0.0 | 0.00 | 0.00 | 0.00 | 71 | 1016.6 |
| 20260504035731 | 11 | 89 | 0.0 | 0.0 | 0.00 | 0.00 | 0.00 | 71 | 1016.5 |
| 20260504035232 | 11 | 89 | 0.0 | 0.0 | 0.00 | 0.00 | 0.00 | 70 | 1016.6 |
| 20260504034730 | 12 | 89 | 0.0 | 0.0 | 0.00 | 0.00 | 0.00 | 69 | 1016.6 |
| 20260504034229 | 12 | 89 | 0.0 | 0.0 | 0.00 | 0.00 | 0.00 | 69 | 1016.6 |
| 20260504033731 | 12 | 89 | 0.0 | 0.0 | 0.00 | 0.00 | 0.00 | 69 | 1016.5 |
| 20260504033230 | 12 | 89 | 0.0 | 0.0 | 0.00 | 0.00 | 0.00 | 68 | 1016.5 |
| 20260504032725 | 12 | 89 | 0.0 | 0.0 | 0.00 | 0.00 | 0.00 | 68 | 1016.5 |
| 20260504032225 | 13 | 89 | 0.0 | 0.0 | 0.00 | 0.00 | 0.00 | 66 | 1016.6 |
| 20260504031727 | 13 | 89 | 0.0 | 0.0 | 0.00 | 0.00 | 0.00 | 67 | 1016.5 |
| 20260504031224 | 13 | 89 | 0.0 | 0.0 | 0.00 | 0.00 | 0.00 | 67 | 1016.5 |
| 20260504030726 | 13 | 89 | 0.0 | 0.0 | 0.00 | 0.00 | 0.00 | 66 | 1016.5 |
| 20260504030226 | 13 | 89 | 0.0 | 0.0 | 0.00 | 0.00 | 0.00 | 65 | 1016.4 |
| 20260504025723 | 13 | 89 | 0.0 | 0.0 | 0.00 | 0.00 | 0.00 | 64 | 1016.5 |
| 20260504025220 | 13 | 89 | 0.0 | 1.6 | 0.00 | 0.00 | 0.00 | 64 | 1016.6 |
| 20260504024722 | 13 | 89 | 0.0 | 1.6 | 0.00 | 0.00 | 0.00 | 63 | 1016.5 |
| 20260504024219 | 13 | 89 | 0.0 | 1.6 | 0.00 | 0.00 | 0.00 | 64 | 1016.5 |
| 20260504023717 | 13 | 73 | 0.0 | 1.6 | 0.00 | 0.00 | 0.00 | 64 | 1016.5 |
| 20260504023220 | 13 | 206 | 0.0 | 0.0 | 0.00 | 0.00 | 0.00 | 64 | 1016.5 |
| 20260504022715 | 13 | 206 | 0.0 | 0.0 | 0.00 | 0.00 | 0.00 | 64 | 1016.6 |
| 20260504022216 | 13 | 207 | 0.0 | 0.0 | 0.00 | 0.00 | 0.00 | 61 | 1016.6 |
| 20260504021720 | 14 | 206 | 0.0 | 0.0 | 0.00 | 0.00 | 0.00 | 60 | 1016.5 |
| 20260504021217 | 14 | 207 | 0.0 | 0.0 | 0.00 | 0.00 | 0.00 | 60 | 1016.5 |
| 20260504015711 | 15 | 206 | 0.0 | 0.0 | 0.00 | 0.00 | 0.00 | 57 | 1016.2 |
| 20260504015217 | 15 | 206 | 0.0 | 0.0 | 0.00 | 0.00 | 0.00 | 56 | 1016.2 |
| 20260504014715 | 15 | 207 | 0.0 | 0.0 | 0.00 | 0.00 | 0.00 | 55 | 1016.1 |
| 20260504014217 | 15 | 206 | 0.0 | 0.0 | 0.00 | 0.00 | 0.00 | 53 | 1015.9 |
| 20260504013720 | 16 | 206 | 0.0 | 0.0 | 0.00 | 0.00 | 0.00 | 53 | 1015.8 |
| 20260504013213 | 16 | 207 | 0.0 | 0.0 | 0.00 | 0.00 | 0.00 | 52 | 1015.7 |
| 20260504012711 | 16 | 206 | 0.0 | 0.0 | 0.00 | 0.00 | 0.00 | 52 | 1015.7 |
| 20260504012213 | 16 | 207 | 0.0 | 0.0 | 0.00 | 0.00 | 0.00 | 51 | 1015.6 |
| 20260504011711 | 16 | 206 | 0.0 | 0.0 | 0.00 | 0.00 | 0.00 | 51 | 1015.5 |
| 20260504011214 | 16 | 207 | 0.0 | 0.0 | 0.00 | 0.00 | 0.00 | 50 | 1015.4 |
| 20260504010710 | 16 | 207 | 0.0 | 0.0 | 0.00 | 0.00 | 0.00 | 49 | 1015.4 |
| 20260504005208 | 17 | 207 | 0.0 | 0.0 | 0.00 | 0.00 | 0.00 | 47 | 1015.2 |
| 20260504004709 | 17 | 206 | 0.0 | 0.0 | 0.00 | 0.00 | 0.00 | 47 | 1015.2 |
| 20260504003206 | 19 | 207 | 0.0 | 1.6 | 0.00 | 0.00 | 0.00 | 43 | 1015.0 |
| 20260504002707 | 19 | 207 | 0.0 | 1.6 | 0.00 | 0.00 | 0.00 | 41 | 1015.0 |
| 20260504002205 | 20 | 208 | 0.0 | 3.2 | 0.00 | 0.00 | 0.00 | 40 | 1015.0 |
| 20260504001705 | 20 | 208 | 1.6 | 6.4 | 0.00 | 0.00 | 0.00 | 39 | 1015.0 |
| 20260504001205 | 20 | 206 | 1.6 | 8.0 | 0.00 | 0.00 | 0.00 | 38 | 1015.1 |
| 20260504000704 | 21 | 220 | 3.2 | 11.3 | 0.00 | 0.00 | 0.00 | 37 | 1015.2 |
| 20260504000200 | 21 | 221 | 4.8 | 11.3 | 0.00 | 0.00 | 0.00 | 37 | 1015.3 |
| 20260503235703 | 21 | 219 | 6.4 | 12.9 | 0.00 | 0.00 | 0.00 | 37 | 1015.4 |
| 20260503235201 | 21 | 217 | 6.4 | 12.9 | 0.00 | 0.00 | 0.00 | 36 | 1015.4 |
| 20260503234659 | 21 | 211 | 4.8 | 11.3 | 0.00 | 0.00 | 0.00 | 36 | 1015.4 |
| 20260503234152 | 21 | 212 | 4.8 | 11.3 | 0.00 | 0.00 | 0.00 | 35 | 1015.5 |
| 20260503233647 | 21 | 221 | 6.4 | 11.3 | 0.00 | 0.00 | 0.00 | 34 | 1015.5 |
| 20260503233149 | 21 | 223 | 6.4 | 12.9 | 0.00 | 0.00 | 0.00 | 33 | 1015.6 |
| 20260503232651 | 21 | 205 | 3.2 | 12.9 | 0.00 | 0.00 | 0.00 | 35 | 1015.6 |
| 20260503232146 | 22 | 188 | 1.6 | 8.0 | 0.00 | 0.00 | 0.00 | 33 | 1015.6 |
| 20260503231650 | 21 | 181 | 3.2 | 9.7 | 0.00 | 0.00 | 0.00 | 35 | 1015.7 |
| 20260503231151 | 21 | 94 | 6.4 | 12.9 | 0.00 | 0.00 | 0.00 | 35 | 1015.8 |
| 20260503230701 | 21 | 221 | 6.4 | 12.9 | 0.00 | 0.00 | 0.00 | 33 | 1015.8 |
| 20260503230147 | 21 | 290 | 8.0 | 17.7 | 0.00 | 0.00 | 0.00 | 34 | 1015.8 |
| 20260503225645 | 21 | 259 | 9.7 | 17.7 | 0.00 | 0.00 | 0.00 | 32 | 1015.9 |
| 20260503225147 | 21 | 217 | 8.0 | 16.1 | 0.00 | 0.00 | 0.00 | 33 | 1015.9 |
| 20260503224644 | 21 | 238 | 8.0 | 16.1 | 0.00 | 0.00 | 0.00 | 32 | 1015.9 |
| 20260503223649 | 21 | 205 | 6.4 | 14.5 | 0.00 | 0.00 | 0.00 | 32 | 1016.1 |
| 20260503222641 | 22 | 235 | 6.4 | 16.1 | 0.00 | 0.00 | 0.00 | 30 | 1016.1 |
| 20260503222138 | 21 | 248 | 8.0 | 16.1 | 0.00 | 0.00 | 0.00 | 30 | 1016.1 |
| 20260503221636 | 21 | 223 | 9.7 | 19.3 | 0.00 | 0.00 | 0.00 | 31 | 1016.2 |
| 20260503221138 | 21 | 270 | 12.9 | 22.5 | 0.00 | 0.00 | 0.00 | 31 | 1016.2 |
| 20260503220641 | 21 | 239 | 12.9 | 22.5 | 0.00 | 0.00 | 0.00 | 30 | 1016.3 |
| 20260503220136 | 22 | 257 | 6.4 | 22.5 | 0.00 | 0.00 | 0.00 | 30 | 1016.3 |
| 20260503215636 | 22 | 141 | 3.2 | 16.1 | 0.00 | 0.00 | 0.00 | 30 | 1016.3 |
| 20260503214637 | 21 | 193 | 9.7 | 20.9 | 0.00 | 0.00 | 0.00 | 30 | 1016.6 |
| 20260503214134 | 21 | 266 | 9.7 | 24.1 | 0.00 | 0.00 | 0.00 | 29 | 1016.6 |
| 20260503213637 | 22 | 244 | 9.7 | 24.1 | 0.00 | 0.00 | 0.00 | 29 | 1016.6 |
| 20260503213131 | 22 | 243 | 8.0 | 19.3 | 0.00 | 0.00 | 0.00 | 29 | 1016.7 |
| 20260503212636 | 22 | 222 | 6.4 | 19.3 | 0.00 | 0.00 | 0.00 | 29 | 1016.8 |
| 20260503212130 | 22 | 257 | 3.2 | 12.9 | 0.00 | 0.00 | 0.00 | 30 | 1016.9 |
| 20260503211630 | 22 | 233 | 4.8 | 17.7 | 0.00 | 0.00 | 0.00 | 29 | 1017.0 |
| 20260503211130 | 21 | 144 | 6.4 | 19.3 | 0.00 | 0.00 | 0.00 | 30 | 1017.0 |
| 20260503210628 | 21 | 144 | 9.7 | 22.5 | 0.00 | 0.00 | 0.00 | 30 | 1017.1 |
| 20260503210126 | 21 | 241 | 11.3 | 25.7 | 0.00 | 0.00 | 0.00 | 30 | 1017.2 |
| 20260503205628 | 21 | 216 | 9.7 | 25.7 | 0.00 | 0.00 | 0.00 | 30 | 1017.3 |
| 20260503205134 | 21 | 259 | 8.0 | 19.3 | 0.00 | 0.00 | 0.00 | 31 | 1017.3 |
| 20260503204630 | 21 | 331 | 9.7 | 22.5 | 0.00 | 0.00 | 0.00 | 30 | 1017.5 |
| 20260503203633 | 21 | 233 | 3.2 | 11.3 | 0.00 | 0.00 | 0.00 | 31 | 1017.6 |
| 20260503203132 | 21 | 205 | 1.6 | 11.3 | 0.00 | 0.00 | 0.00 | 31 | 1017.8 |
| 20260503202629 | 21 | 267 | 4.8 | 17.7 | 0.00 | 0.00 | 0.00 | 31 | 1017.8 |
| 20260503202129 | 21 | 192 | 6.4 | 17.7 | 0.00 | 0.00 | 0.00 | 31 | 1018.0 |
| 20260503201634 | 21 | 269 | 8.0 | 17.7 | 0.00 | 0.00 | 0.00 | 30 | 1018.1 |
| 20260503201125 | 21 | 265 | 9.7 | 17.7 | 0.00 | 0.00 | 0.00 | 31 | 1018.3 |
| 20260503200620 | 20 | 275 | 8.0 | 16.1 | 0.00 | 0.00 | 0.00 | 31 | 1018.3 |
| 20260503195624 | 20 | 264 | 8.0 | 20.9 | 0.00 | 0.00 | 0.00 | 30 | 1018.6 |
| 20260503195125 | 20 | 210 | 8.0 | 19.3 | 0.00 | 0.00 | 0.00 | 32 | 1018.8 |
| 20260503194620 | 20 | 236 | 8.0 | 19.3 | 0.00 | 0.00 | 0.00 | 32 | 1019.0 |
| 20260503194120 | 21 | 215 | 6.4 | 16.1 | 0.00 | 0.00 | 0.00 | 33 | 1019.1 |
| 20260503193624 | 21 | 252 | 4.8 | 16.1 | 0.00 | 0.00 | 0.00 | 31 | 1019.2 |
| 20260503193123 | 20 | 269 | 3.2 | 11.3 | 0.00 | 0.00 | 0.00 | 32 | 1019.2 |
| 20260503192120 | 20 | 79 | 4.8 | 16.1 | 0.00 | 0.00 | 0.00 | 32 | 1019.5 |
| 20260503191623 | 20 | 227 | 3.2 | 9.7 | 0.00 | 0.00 | 0.00 | 31 | 1019.7 |
| 20260503191121 | 20 | 348 | 6.4 | 22.5 | 0.00 | 0.00 | 0.00 | 32 | 1019.7 |
| 20260503190618 | 20 | 140 | 11.3 | 24.1 | 0.00 | 0.00 | 0.00 | 32 | 1019.9 |